Powrót do katalogu

STARLINK-34327

AktywnyŁącznośćVLEO
NORAD 64208·PAYLOAD·🇺🇸 United States

Wystrzelony May 31, 2025 z Vandenberg Space Force Base

Loading…

Następne Przeloty (najbliższe 24 godziny)

TLE

ŚwieżeSource: CelesTrak SupGP

Epoka: Sep 15, 2026, 02:42 UTC

1 64208C 25117F   26258.11298611 -.00041783  00000+0 -12343-2 0  2585
2 64208  53.1582 238.7863 0001389  93.9124 167.5545 15.34415009    18

Śledź STARLINK-34327 w czasie rzeczywistym z AllMySat

Download on the App Store